Starlink 31390

operational
NORAD ID: 58937 Int'l Des: 2024-027 Owner: SPXS Country: US Constellation: starlink
LEOCIRCULAR

Starlink 31390について

説明を読み込み中...

リアルタイム位置

3D地球を読み込み中...

次回通過

高度履歴

Altitude vs Time

uPlot chart will show altitude changes over time

軌道要素

1 58937U 24027G 25353.21369298 .00000418 00000-0 26231-4 0 9996
2 58937 53.1623 323.6710 0001215 82.9732 277.1407 15.30191466105006
Epoch: Dec 19, 2025 • Age: 49 hours

現在のステータス

高度 475.2 km
速度 7.63 km/s
衛星直下点 11.07°N, 61.02°W
打ち上げ日 Feb 10, 2024
運用期間 1.8 years
タイプ internet

技術仕様

分類 Payload
質量 730.00 kg
乾燥質量 700.00 kg
総質量 730.00 kg
長さ 0.30 m
直径 4.10 m
スパン 29.00 m
形状 Box + pan
製造者 SPXS
バスタイプ Starlink V2M
フェーズステータス In Orbit
所有者/国 SPXS/US

大規模コンステレーション

Loading constellations...